Regional Weather Roundup
Issued by NWS San Diego, CA

Home | Current Version | Previous Version | Text Only | Print | Product List | Glossary On
Versions: 1 2 3 4 5 6 7 8 9 10 11 12 13 14 15 16 17 18 19 20 21 22 23 24 25 26 27 28 29 30 31 32 33 34 35 36 37 38 39 40 41 42 43 44 45 46 47 48 49 50
000
ASUS46 KSGX 210711
RWRSGX

SAN DIEGO HOURLY WEATHER ROUNDUP
NATIONAL WEATHER SERVICE SAN DIEGO CA
1200 AM PDT THU SEP 21 2017

NOTE: "FAIR" INDICATES FEW OR NO CLOUDS BELOW 12,000 FEET WITH NO
SIGNIFICANT WEATHER AND/OR OBSTRUCTIONS TO VISIBILITY.

CAZ042-043-060-061-PZZ750-775-210800-

GREATER SAN DIEGO AREA

CITY           SKY/WX    TMP DP  RH WIND       PRES   REMARKS
SAN DIEGO AP   CLOUDY    68  58  70 S8        29.89S
NATIONAL CITY    N/A     68  60  75 CALM      29.90S
CHULA VISTA      N/A     66  60  81 CALM      29.80S
IMPERIAL BEACH CLOUDY    67  57  70 SE6       29.88S
BROWN FIELD    CLOUDY    65  58  78 S7        29.89R
MIRAMAR MCAS   CLOUDY    69  60  73 SE7       29.88S
MONTGOMERY FLD CLOUDY    68  58  70 SE6       29.88S
GILLESPIE FLD  CLOUDY    66  57  72 VRB6      29.89S

$$

NORTH SAN DIEGO COUNTY

CITY           SKY/WX    TMP DP  RH WIND       PRES   REMARKS
CAMP PENDLETON CLOUDY    68  55  63 CALM      29.87S
OCEANSIDE AP   CLOUDY    69  59  70 S5        29.86S
OCEANSIDE HBR    N/A     67  61  80 W3        29.89S
VISTA            N/A     66  60  80 CALM      29.85R
CARLSBAD       CLOUDY    67  59  75 SE6       29.87S
DEL MAR          N/A     65  61  87 CALM      29.89S
LA JOLLA SCRIP   N/A     66  61  83 SE3       29.87R
FALLBROOK        N/A     65  63  93 CALM      29.88R
ESCONDIDO        N/A     65  59  80 CALM      29.89R
SAN MARCOS       N/A     65  59  80 CALM      29.89S
POWAY            N/A     65  58  79 CALM      29.89R

$$

EAST SAN DIEGO COUNTY

CITY           SKY/WX    TMP DP  RH WIND       PRES   REMARKS
RAMONA         CLOUDY    62  58  86 S5        29.90R
SANTEE LAKES     N/A     65  59  82 CALM      29.87R
LA MESA          N/A     64  58  82 CALM      29.81S
JAMUL            N/A     62  58  87 CALM      29.88R
DESCANSO N       N/A     50  38  64 CALM      29.81R
CAMPO            N/A     47  43  86 NE3       29.89R

$$

ORANGE COUNTY AND THE LOS ANGELES BASIN

CITY           SKY/WX    TMP DP  RH WIND       PRES   REMARKS
JOHN WAYNE AP  CLOUDY    68  61  78 SE9       29.86F
LAGUNA BEACH     N/A     68  62  82 CALM      29.82S
LAKE FOREST FR   N/A     63  57  82 CALM      29.76F
HUNTINGTON BCH   N/A     68  63  84 SE2       29.87F
LOS ALAMITOS   MOCLDY    68  62  79 SE5       29.85F
FULLERTON      CLOUDY    69  62  78 S6        29.85F
LONG BEACH     CLOUDY    68  62  81 NW3       29.85F
L.A. AP        MOCLDY    67  62  84 SW7       29.86S
L.A. DOWNTOWN  CLOUDY    69  60  73 CALM      29.85S

$$

THE INLAND EMPIRE

CITY           SKY/WX    TMP DP  RH WIND       PRES   REMARKS
CORONA         CLOUDY    66  60  81 MISG        N/A
CHINO          CLOUDY    66  60  81 SW7       29.87F
ONTARIO        CLOUDY    65  59  81 SW9       29.87S
SAN BERNARDINO CLOUDY    66  58  73 W8        29.88F
RIVERSIDE AP   CLOUDY    65  61  87 VRB5      29.87F
MORENO VALLEY    N/A     63  61  94 NW2         N/A
MARCH ARB      CLOUDY    64  61  93 CALM      29.88F
HORSETHIEF CYN   N/A     64  55  74 CALM      29.86S
PERRIS           N/A     62  60  93 S3          N/A
HEMET EAST       N/A     61  55  80 CALM      29.90S
FRENCH VALLEY  CLOUDY    63  57  82 SW5       29.90S
TEMECULA         N/A     63  60  90 W5        29.95S

$$

SAN BERNARDINO AND RIVERSIDE COUNTY MOUNTAINS

CITY           SKY/WX    TMP DP  RH WIND       PRES   REMARKS
BIG BEAR AP    CLEAR     50  32  50 W7        30.01F
PINE COVE        N/A     54  33  45 N1        29.75F

$$

SOUTHERN DESERT INCLUDING THE COACHELLA VALLEY

CITY           SKY/WX    TMP DP  RH WIND       PRES   REMARKS
PALM SPRINGS   CLEAR     77  56  48 NW14      29.71S
THOUSAND PALMS   N/A     75  57  54 NW17      29.68R
PALM DESERT      N/A     74  58  57 CALM        N/A
THERMAL        CLEAR     78  57  48 N18       29.65F
BLYTHE         CLEAR     79  51  37 S15       29.68F
IMPERIAL AP    CLEAR     78  41  26 W17       29.67S
EL CENTRO NAS  CLEAR     80  34  19 W22       29.70S
YUMA AZ        CLEAR     80  59  48 S5        29.70F
MEXICALI       CLEAR     77  43  29 N6        29.70S

$$

UPPER DESERT

CITY           SKY/WX    TMP DP  RH WIND       PRES   REMARKS
VICTORVILLE AP CLEAR     63  52  67 S9        29.85F
HESPERIA         N/A     61  54  77 SW10      29.88F
PALMDALE       CLEAR     62  55  77 SW16G28   29.84F
LANCASTER      CLEAR     62  53  72 SW21      29.84S
EDWARDS AFB    CLEAR     62  53  71 SW16      29.80F
DAGGETT        CLEAR     72  50  45 SW21      29.77F
29 PALMS N     CLEAR     73  44  35 W12       29.83S
NEEDLES        CLEAR     86  39  19 SW12      29.66S

$$

REGIONAL REPORTS

CITY           SKY/WX    TMP DP  RH WIND       PRES   REMARKS
SANTA BARBARA  CLEAR     65  57  75 NE6       29.83S
SANDBERG       FOG       54  53  97 SW9       29.95S VSB 1/4
LAS VEGAS NV   CLEAR     79  41  25 SW9G20    29.65S
PHOENIX AZ     CLEAR     81  34  18 SE8       29.75R
TIJUANA        MOCLDY    64  59  82 CALM      29.90S
ENSENADA NW      N/A     66  32  28 CALM      29.86S

$$

OFFSHORE ISLANDS

CITY           SKY/WX    TMP DP  RH WIND       PRES   REMARKS
CATALINA ARPT  CLOUDY    62  62 100 W3        29.90S FOG
SAN NICOLAS IS CLOUDY    60  32  34 W18G25    29.87S VSB 3/4

$$

MARINE AND OFFSHORE BUOY REPORTS

STATION/POSITION SKY/WX   TEMP    WIND        PRES    VSBY  SWELL
                          AIR SEA DIR/SP/G                  HT/PER/DIR
                          (F)     (DEG/KT/KT) (MB)    (MI)  (FT/S/D)
TANNER BANKS               65 67  320/ 16/ 19 1011.6S        10/330/14
S CLEMENTE BASIN           68 71  340/  6/  8 1011.4S         3/250/14
SAN NICOLAS IS.               65                N/A           5/310/11
SO. S. ROSA ISLA           63 65  300/ 16/ 19 1011.6R         7/310/13
W. S. BARBARA CH           62 62  320/ 16/ 19 1011.2R         5/290/13
M. S. BARBARA CH           67 67  270/  4/  6 1010.9S         3/240/13
S. MONICA BASIN               69  340/  4/  8 1010.3F         3/260/ 8
S PEDRO CHANNEL               69                N/A           2/160/12
CMP PENDLETON NS              69                N/A           2/210/13
OCEANSIDE OFFSHR              70                N/A           2/190/12
TORREY PINES OTR              70                N/A           2/200/11
SAN DIEGO BAY                 72              1012.2R
POINT LOMA SOUTH              71                N/A           2/270/13

$$





USA.gov is the U.S. government's official web portal to all federal, state and local government web resources and services.